Weather History for KJAX - July, 2013

Change the Weather History Date:

Sunday, July 28, 2013

  Actual Average Record
Temperature  
Mean Temperature 81 °F 83 °F  
Max Temperature 89 °F 92 °F 104 °F (1872)
Min Temperature 72 °F 73 °F 67 °F (1920)
Degree Days  
Heating Degree Days 0 0  
Month to date heating degree days 0 0  
Since 1 June heating degree days 0 0  
Since 1 July heating degree days 0 0  
Cooling Degree Days 16 18  
Month to date cooling degree days 437 486  
Year to date cooling degree days 1346 1419  
Since 1 June cooling degree days 910 935  
Growing Degree Days 30 (Base 50)    
Moisture  
Dew Point 73 °F    
Average Humidity 80    
Maximum Humidity 100    
Minimum Humidity 59    
Precipitation  
Precipitation 0.28 in 0.20 in 4.46 in (1926)
Month to date precipitation 7.88 5.94  
Year to date precipitation 29.64 27.95  
Snow  
Snow 0.00 in 0.00 in 0.00 in (2002)
Month to date snowfall 0.0 0.0  
Since 1 June snowfall 0.0 0.0  
Since 1 July snowfall 0.0 0.0  
Snow Depth 0.00 in    
Sea Level Pressure  
Sea Level Pressure 29.99 in    
Wind  
Wind Speed 3 mph (SE)    
Max Wind Speed 18 mph    
Max Gust Speed 22 mph    
Visibility 8 miles    
Events Rain , Thunderstorm    
T = Trace of Precipitation, MM = Missing Value Source: NWS Daily Summary

Daily Weather History Graph

Daily Weather History Graph

Search for Another Location

Airport or City:

Trip Planner

Search our weather history database for the weather conditions in past years. The results will help you decide how hot, cold, wet, or windy it might be!

Date:

Astronomy

Jul. 28, 2013 Rise Set
Actual Time 6:42 AM EDT 8:23 PM EDT
Civil Twilight 6:16 AM EDT 8:49 PM EDT
Nautical Twilight 5:44 AM EDT 9:21 PM EDT
Astronomical Twilight 5:11 AM EDT 9:54 PM EDT
Moon No Moon Rise 12:51 PM EDT (7/28)
Length of Visible Light 14h 33m
Length of Day
13h 40m
Waning Gibbous, 61% of the Moon is Illuminated
Jul 28
Waning Gibbous
Jul 29
Last Quarter
Aug 6
New
Aug 14
First Quarter
Aug 20
Full

Hourly Weather History & Observations

Time (EDT) Temp. Heat Index Dew Point Humidity Pressure Visibility Wind Dir Wind Speed Gust Speed Precip Events Conditions
12:56 AM 73.0 °F - 72.0 °F 96% 29.94 in 10.0 mi Calm Calm - N/A   Mostly Cloudy
1:56 AM 73.0 °F - 72.0 °F 96% 29.94 in 8.0 mi Calm Calm - N/A   Mostly Cloudy
2:56 AM 73.0 °F - 71.1 °F 93% 29.93 in 8.0 mi Calm Calm - N/A   Mostly Cloudy
3:56 AM 73.0 °F - 71.1 °F 93% 29.93 in 7.0 mi Calm Calm - N/A   Scattered Clouds
4:56 AM 73.0 °F - 71.1 °F 93% 29.94 in 8.0 mi Calm Calm - N/A   Mostly Cloudy
5:56 AM 72.0 °F - 71.1 °F 97% 29.96 in 7.0 mi Calm Calm - N/A   Mostly Cloudy
6:56 AM 72.0 °F - 70.0 °F 93% 29.97 in 6.0 mi SW 3.5 mph - N/A   Mostly Cloudy
7:56 AM 73.9 °F - 73.0 °F 97% 29.97 in 6.0 mi Calm Calm - N/A   Mostly Cloudy
8:56 AM 75.0 °F - 73.9 °F 96% 29.99 in 5.0 mi West 4.6 mph - N/A   Overcast
9:56 AM 77.0 °F - 73.9 °F 90% 30.00 in 6.0 mi West 4.6 mph - N/A   Overcast
10:56 AM 80.1 °F 85.1 °F 75.0 °F 85% 30.01 in 6.0 mi Calm Calm - N/A   Haze
11:56 AM 82.0 °F 87.9 °F 73.9 °F 76% 30.01 in 10.0 mi Variable 4.6 mph - N/A   Mostly Cloudy
12:56 PM 84.9 °F 91.4 °F 73.0 °F 67% 30.01 in 10.0 mi Calm Calm - N/A   Mostly Cloudy
1:56 PM 87.1 °F 95.4 °F 73.9 °F 65% 30.00 in 10.0 mi East 3.5 mph - N/A   Mostly Cloudy
2:56 PM 88.0 °F 94.7 °F 72.0 °F 59% 29.99 in 10.0 mi SSE 4.6 mph - N/A   Mostly Cloudy
3:56 PM 81.0 °F 87.3 °F 75.9 °F 85% 29.98 in 8.0 mi NE 10.4 mph - 0.00 in Rain Light Rain
4:10 PM 82.4 °F 89.5 °F 75.2 °F 79% 29.98 in 10.0 mi ENE 12.7 mph - 0.00 in Thunderstorm Thunderstorm
4:49 PM 75.2 °F - 71.6 °F 89% 30.00 in 2.5 mi NE 15.0 mph - 0.00 in Rain , Thunderstorm Light Thunderstorms and Rain
4:51 PM 75.2 °F - 71.6 °F 89% 30.00 in 1.8 mi NE 13.8 mph - 0.02 in Rain , Thunderstorm Thunderstorms and Rain
4:56 PM 75.0 °F - 72.0 °F 90% 30.00 in 4.0 mi East 11.5 mph - 0.21 in Rain , Thunderstorm Heavy Thunderstorms and Rain
5:31 PM 78.8 °F - 71.6 °F 78% 30.00 in 10.0 mi SSE 6.9 mph - 0.07 in   Mostly Cloudy
5:56 PM 79.0 °F - 73.0 °F 82% 30.01 in 10.0 mi SE 15.0 mph 21.9 mph 0.07 in   Mostly Cloudy
6:56 PM 79.0 °F - 71.1 °F 77% 30.00 in 10.0 mi SSE 5.8 mph - N/A   Mostly Cloudy
7:56 PM 80.1 °F 83.8 °F 72.0 °F 76% 30.01 in 10.0 mi South 4.6 mph - N/A   Mostly Cloudy
8:56 PM 77.0 °F - 71.1 °F 82% 30.03 in 10.0 mi SSW 3.5 mph - N/A   Mostly Cloudy
9:56 PM 75.9 °F - 72.0 °F 87% 30.04 in 10.0 mi Calm Calm - N/A   Scattered Clouds
10:56 PM 75.0 °F - 73.0 °F 94% 30.05 in 9.0 mi Calm Calm - N/A   Scattered Clouds
11:56 PM 73.9 °F - 73.0 °F 97% 30.06 in 9.0 mi Calm Calm - N/A   Partly Cloudy